Location: Newark
(43.6583°N, 1.6617°E)
Time: 22:44:05
(UTC+00:00)

Courier 1B - Pass Details

Date: 03 September 2019
Orbit: 962 x 1209 km, 28.3° (Epoch: 15 September)

Event Time Altitude Azimuth Distance (km) Brightness Sun altitude
Rises 15:58:46 0° 252° (WSW) 4,025 12.1 25.6°
Reaches altitude 10° 16:02:26 10° 237° (WSW) 3,023 11.6 25.0°
Maximum altitude 16:07:35 20° 192° (SSW) 2,280 9.9 24.1°
Drops below altitude 10° 16:12:32 10° 148° (SSE) 2,890 9.8 23.2°
Sets 16:15:57 0° 132° (SE) 3,797 10.3 22.6°
